{"data":{"norad_id":62186,"epoch":"2026-09-22T17:18:33.675840Z","epoch_age_seconds":118304,"freshness":"FRESH","line1":"1 62186U 24226B   26265.72122310 -.00000081  00000+0  83982-4 0  9991","line2":"2 62186  50.0057 331.5102 0011584   9.9837 350.1269 13.41508788 88807","mean_motion":13.41508788,"eccentricity":0.0011584,"inclination_deg":50.0057,"raan_deg":331.5102,"arg_perigee_deg":9.9837,"mean_anomaly_deg":350.1269,"bstar":8.3982e-5,"rev_number":8880,"period_min":107.34182383903,"perigee_km":1094.9972069653,"apogee_km":1112.3310438126,"semimajor_km":7481.8011253889,"source":"CELESTRAK","updated_at":"2026-09-23T09:00:21.292649Z"}}